Regional Weather Roundup
Issued by NWS

Home | Current Version | Previous Version | Text Only | Print | Product List | Glossary Off
Versions: 1 2 3 4 5 6 7 8 9 10 11 12 13 14 15 16 17 18 19 20 21 22 23 24 25 26 27 28 29 30 31 32 33 34 35 36 37 38 39 40 41 42 43 44 45 46 47 48 49 50

000
ASUS43 KMPX 060410
RWRMN
WEATHER ROUNDUP FOR MINNESOTA
NATIONAL WEATHER SERVICE TWIN CITIES/CHANHASSEN MN
1100 PM CDT TUE MAY 05 2015


NOTE: "FAIR" INDICATES FEW OR NO CLOUDS BELOW 12,000 FEET WITH NO
SIGNIFICANT WEATHER AND/OR OBSTRUCTIONS TO VISIBILITY. N/A MEANS
CURRENT SKY AND/OR WEATHER CONDITIONS ARE NOT AVAILABLE.

MNZ060>063-068>070-060500-
   Twin Cities Metro

CITY           SKY/WX    TMP DP  RH WIND       PRES   REMARKS
TWIN CITIES    CLOUDY    57  53  86 SE14      30.13F
ST PAUL        CLOUDY    56  53  90 SE15      30.15R
CRYSTAL        CLOUDY    59  52  77 SE10      30.12S
BLAINE         CLOUDY    61  54  77 SE7       30.14R
LAKEVILLE      CLOUDY    54  52  94 SE8       30.14S
EDEN PRAIRIE   CLOUDY    56  53  90 SE10      30.12S
SOUTH ST PAUL  CLOUDY    57  54  89 SE6       30.14S
LAKE ELMO      CLOUDY    55  52  88 SE6       30.16S
$$
MNZ001>005-007-008-013>017-022>024-027-028-060500-
   Northwest Minnesota

CITY           SKY/WX    TMP DP  RH WIND       PRES   REMARKS
BEMIDJI        CLOUDY    64  40  41 SE10      30.06S
HALLOCK        PTCLDY    64  19  17 SE13      29.96S
ROSEAU         PTCLDY    66  30  26 SE12      30.02S
WARROAD        MOCLDY    66  37  34 SE13      30.03F
THIEF RVR FALL PTCLDY    63  37  39 SE8       30.02R
CROOKSTON      PTCLDY    66  52  59 S17       30.00S
FOSSTON        MOCLDY    64  41  42 SE8       30.03S
DETROIT LAKES  MOCLDY    63  52  67 S10       30.05S
MOORHEAD       PTCLDY    64  54  68 S14       30.01R
PARK RAPIDS    CLOUDY    64  43  46 SE10      30.06S
MAHNOMEN       FAIR      62  47  57 SE8       30.02S
$$
MNZ006-009>011-018-025>026-060500-
   North Central Minnesota

CITY           SKY/WX    TMP DP  RH WIND       PRES   REMARKS
BAUDETTE       PTCLDY    58  35  42 SE6       30.06S
FLAG ISLAND    PTCLDY    61  32  33 E6        30.03S
INTL FALLS     CLEAR     52  32  46 SE5       30.09R
WASKISH        PTCLDY    57  37  47 CALM      30.07S
BIG FORK       CLEAR     61  30  31 SE7       30.11R
LONGVILLE      MOCLDY    63  39  42 SE9       30.09S
GRAND RAPIDS   CLEAR     57  28  33 SE7       30.13R
CRANE LAKE     CLEAR     55  27  33 SE5       30.15S
ORR            CLEAR     57  25  28 SE10      30.11R
COOK           CLEAR     55  27  33 SE6       30.15S
WALKER         CLOUDY    64  40  42 S9G16     30.07F
$$
MNZ012-019>021-037-060500-
   Northeast Minnesota

CITY           SKY/WX    TMP DP  RH WIND       PRES   REMARKS
DULUTH         CLEAR     52  27  38 E8        30.17S
ELY            CLEAR     52  25  35 SE6       30.17S
HIBBING        CLEAR     49  25  39 SE7       30.15R
EVELETH        CLEAR     52  27  37 E3        30.17S
DULUTH HARBOR    N/A     45  37  76 E7        30.19S
TWO HARBORS    CLEAR     52  30  43 N5        30.17S
SILVER BAY     PTCLDY    50  25  37 N3        30.17S
GRAND MARAIS     N/A     55  25  31 NE8G17    30.19F
G MARAIS ARPRT PTCLDY    50  19  29 E9        30.22S
$$
MNZ029>031-032-039>041-046>048-054>057-064-060500-
   West Central Minnesota

CITY           SKY/WX    TMP DP  RH WIND       PRES   REMARKS
FERGUS FALLS   CLOUDY    63  54  72 SE14G22   30.03F
WHEATON        CLOUDY    57  52  82 SE17      30.03S
MORRIS         CLOUDY    59  54  82 SE18      30.04S
ALEXANDRIA     CLOUDY    60  52  74 SE14G24   30.08S
ELBOW LAKE     CLOUDY    61  53  75 SE17      30.03F
WADENA         CLOUDY    61  48  63 SE12      30.06F
GLENWOOD       CLOUDY    59  54  82 SE18G24   30.09R
APPLETON       CLOUDY    61  54  77 SE16      30.04S
BENSON         CLOUDY    57  54  88 S15G21    30.06S
ORTONVILLE     CLOUDY    59  52  77 SE13      30.03S
MADISON        CLOUDY    59  54  82 SE18G24   30.04S
WILLMAR        CLOUDY    57  54  88 SE13      30.09S
$$
MNZ033>034-036-042>043-049>051-058-059-060500-
   Central Minnesota

CITY           SKY/WX    TMP DP  RH WIND       PRES   REMARKS
ST CLOUD       CLOUDY    59  52  77 SE14      30.11R
SAUK CENTRE    CLOUDY    59  53  78 SE15G21   30.09S
PAYNESVILLE    CLOUDY    55  52  90 E14G24    30.10S
AITKIN         CLOUDY    64  34  32 SE10      30.10S
PINE RIVER     MOCLDY    61  41  48 SE9       30.12S
BRAINERD       CLOUDY    62  39  42 SE10      30.10F
STAPLES        CLOUDY    63  46  55 SE10      30.08S
LONG PRAIRIE   CLOUDY    61  50  67 E10G17    30.08F
LITTLE FALLS   CLOUDY    61  46  59 SE9       30.10S
LITCHFIELD     CLOUDY    57  55  94 SE10      30.11S
BUFFALO        CLOUDY    56  51  82 SE15G22   30.13S
MAPLE LAKE     CLOUDY    59  55  87 SE8       30.13R
$$
MNZ037-044-045-052-053-060500-
   East Central Minnesota

CITY           SKY/WX    TMP DP  RH WIND       PRES   REMARKS
PRINCETON      CLOUDY    61  48  63 SE5       30.12S
MORA           CLOUDY    59  39  47 SE5       30.15S
CAMBRIDGE      CLOUDY    63  48  59 SE6       30.12R
RUSH CITY      MOCLDY    59  40  48 SE3       30.14S
MOOSE LAKE     CLOUDY    52  32  46 NE3       30.13F
HINCKLEY       CLOUDY    63  36  36 SE6       30.15R
CLOQUET        PTCLDY    48  28  46 E5        30.16S
MCGREGOR       MOCLDY    54  34  47 SE7       30.13F
$$
MNZ071>073-080-081-089-090-097-098-060500-
   Southwest Minnesota

CITY           SKY/WX    TMP DP  RH WIND       PRES   REMARKS
MONTEVIDEO     CLOUDY    57  54  88 S18       30.06S
GRANITE FALLS  CLOUDY    57  52  84 E14       30.07S
CANBY          CLOUDY    59  54  85 SE13      30.04S
MARSHALL       CLOUDY    57  52  82 SE15      30.04S
REDWOOD FALLS  CLOUDY    57  52  83 SE16      30.07S
OLIVIA         CLOUDY    54  50  87 SE13G18   30.07F
PIPESTONE      CLOUDY    59  57  94 SE10G18   30.02S
WINDOM         CLOUDY    55  54  94 SE14      30.06F VSB 1
WORTHINGTON    CLOUDY    55  54  94 SE15G22   30.05F VSB 1/2
JACKSON        FOG       55  54  94 SE15      30.08F VSB 1/2
TRACY          CLOUDY    59  56  90 SE13      30.06S
SLAYTON        CLOUDY    56  56 100 SE14G20   30.05F FOG
$$
MNZ065>067-074>077-082>085-091>093-060500-
   South Central Minnesota

CITY           SKY/WX    TMP DP  RH WIND       PRES   REMARKS
MANKATO        CLOUDY    55  54  94 SE13G21   30.11F
NEW ULM        CLOUDY    55  54  94 SE12      30.09S
ST JAMES       CLOUDY    57  54  88 SE14      30.10F
FAIRMONT       CLOUDY    55  50  82 SE14      30.08F VSB 1
GLENCOE        CLOUDY    56  54  92 E13       30.11S
FARIBAULT      CLOUDY    54  52  94 SE9       30.13F
OWATONNA       CLOUDY    54  52  94 SE13      30.13S
WASECA         CLOUDY    54  50  87 E12       30.13S
ALBERT LEA     FOG       54  54 100 SE10      30.13S VSB 3/4
$$
MNZ078>079-086>088-094>096-060500-
   Southeast Minnesota

CITY           SKY/WX    TMP DP  RH WIND       PRES   REMARKS
ROCHESTER      CLOUDY    53  52  96 SE15      30.16S FOG
RED WING       CLOUDY    57  54  88 SE12G18   30.14F
STANTON        CLOUDY    56  52  86 SE7       30.13S
DODGE CENTER   CLOUDY    54  54 100 SE14      30.15R FOG
WINONA         DRIZZLE   54  52  94 E9        30.18S
AUSTIN         CLOUDY    54  52  94 SE12G18   30.14S FOG
PRESTON        CLOUDY    52  51  97 SE8       30.17S FOG
$$
ABBREVIATIONS USED IN REMARKS
   TC - TEMPERATURES IN CELSIUS
  WCI - WIND CHILL INDEX
   HX - HEAT INDEX
  VSB - VISIBILITY
$$


USA.gov is the U.S. government's official web portal to all federal, state and local government web resources and services.